Torna al catalogo

SL-8 R/B

AttivoPO
NORAD 12298·ROCKET BODY·🇷🇺 Russia

Lanciato Feb 12, 1981 da Plesetsk Cosmodrome

Loading…

Prossimi Passaggi (prossime 24 ore)

TLE

AggiornatoSource: Space-Track

Epoca: Sep 14, 2026, 04:05 UTC

1 12298U 81013B   26257.17079135  .00000068  00000-0  53513-4 0  9995
2 12298  82.9534 342.8972 0030154 161.5685 212.7535 13.76941475289501

Traccia SL-8 R/B in tempo reale con AllMySat

Download on the App Store